Regional Weather Roundup
Issued by NWS

Home | Current Version | Previous Version | Text Only | Print | Product List | Glossary Off
Versions: 1 2 3 4 5 6 7 8 9 10 11 12 13 14 15 16 17 18 19 20 21 22 23 24 25 26 27 28 29 30 31 32 33 34 35 36 37 38 39 40 41 42 43 44 45 46 47 48 49 50

000
ASUS43 KMPX 182110
RWRMN
WEATHER ROUNDUP FOR MINNESOTA
NATIONAL WEATHER SERVICE TWIN CITIES/CHANHASSEN MN
400 PM CDT SAT APR 18 2015


NOTE: "FAIR" INDICATES FEW OR NO CLOUDS BELOW 12,000 FEET WITH NO
SIGNIFICANT WEATHER AND/OR OBSTRUCTIONS TO VISIBILITY. N/A MEANS
CURRENT SKY AND/OR WEATHER CONDITIONS ARE NOT AVAILABLE.

MNZ060>063-068>070-182200-
   Twin Cities Metro

CITY           SKY/WX    TMP DP  RH WIND       PRES   REMARKS
TWIN CITIES    CLOUDY    70  34  26 E15       29.96F
ST PAUL        PTSUNNY   69  33  26 E13       29.98F
CRYSTAL        CLOUDY    71  31  22 E13       29.96F
BLAINE         PTSUNNY   73  34  23 E14G20    29.97F
LAKEVILLE      PTSUNNY   72  37  28 E16       29.94F
EDEN PRAIRIE   CLOUDY    71  36  27 E12       29.95F
SOUTH ST PAUL  CLOUDY    71  31  22 E6        29.96F
LAKE ELMO      FAIR      68  34  28 E10       29.99F
$$
MNZ001>005-007-008-013>017-022>024-027-028-182200-
   Northwest Minnesota

CITY           SKY/WX    TMP DP  RH WIND       PRES   REMARKS
BEMIDJI        MOSUNNY   63  28  26 SE9       30.00F
HALLOCK        SUNNY     66  12  12 S13       29.95F
ROSEAU         SUNNY     64  16  15 S13       30.00F
WARROAD        SUNNY     54  32  43 NE12      30.01F
THIEF RVR FALL MOSUNNY   66  23  19 S7        29.98F
CROOKSTON      PTSUNNY   70  25  18 S8        29.96F
FOSSTON        MOSUNNY   68  25  19 S7        29.97F
DETROIT LAKES  MOSUNNY   68  32  26 SE13      29.97F
MOORHEAD       CLOUDY    72  27  18 E9        29.93F
PARK RAPIDS    SUNNY     67  27  22 SE10      29.98F
MAHNOMEN       FAIR      67  30  25 SE10      29.96F
$$
MNZ006-009>011-018-025>026-182200-
   North Central Minnesota

CITY           SKY/WX    TMP DP  RH WIND       PRES   REMARKS
BAUDETTE       MOSUNNY   63  19  18 SE13G25   30.01F
FLAG ISLAND    SUNNY     54  27  35 SE5       30.02F
INTL FALLS     SUNNY     62  18  18 S10G23    30.04F
WASKISH        MOSUNNY   66  28  24 SE9       30.01F
BIG FORK       MOSUNNY   64  19  17 SE9       30.05F
LONGVILLE      SUNNY     64  28  25 SE6       30.02F
GRAND RAPIDS   SUNNY     59  25  27 SE8G21    30.06F
ORR            SUNNY     63   9  12 SE10G21   30.05F
COOK           SUNNY     61  14  16 SE10G22   30.08F
WALKER         FAIR      63  30  29 E8        30.00F
$$
MNZ012-019>021-037-182200-
   Northeast Minnesota

CITY           SKY/WX    TMP DP  RH WIND       PRES   REMARKS
DULUTH         MOSUNNY   49  31  49 NE17      30.11F
ELY            SUNNY     57   9  14 SE15G23   30.12S
HIBBING        SUNNY     60  13  15 E21G26    30.07F
EVELETH        SUNNY     57  14  18 E12G18    30.10F
DULUTH HARBOR  SUNNY     41  36  81 NE24      30.15F
TWO HARBORS    SUNNY     50  36  57 E21       30.13F
SILVER BAY     SUNNY     46  32  57 NE16G23   30.15F
GRAND MARAIS     N/A     41  32  70 NE8       30.23F
G MARAIS ARPRT SUNNY     48  16  27 E13G18    30.19F
$$
MNZ029>031-032-039>041-046>048-054>057-064-182200-
   West Central Minnesota

CITY           SKY/WX    TMP DP  RH WIND       PRES   REMARKS
FERGUS FALLS   MOSUNNY   72  18  13 SE10G18   29.93F
WHEATON        MOSUNNY   72  28  20 SE17      29.91F
MORRIS         PTSUNNY   73  28  19 SE16G23   29.91F
ALEXANDRIA     SUNNY     71  29  21 E17G24    29.96F
ELBOW LAKE     FAIR      70  31  23 E18       29.92F
WADENA         SUNNY     68  36  30 E12G20    29.97F
GLENWOOD       MOSUNNY   72  28  20 E16G22    29.95F
APPLETON       CLOUDY    73  23  15 SE14G20   29.90F
BENSON         PTSUNNY   73  21  14 SE9G20    29.91F
ORTONVILLE     CLOUDY    72  27  18 SE13G21   29.89F
MADISON        CLOUDY    73  27  17 E15       29.89F
WILLMAR        FAIR      73  30  20 E15G23    29.94F
$$
MNZ033>034-036-042>043-049>051-058-059-182200-
   Central Minnesota

CITY           SKY/WX    TMP DP  RH WIND       PRES   REMARKS
ST CLOUD       MOSUNNY   69  30  23 E8G17     29.97F
SAUK CENTRE    FAIR      71  30  21 SE15      29.96F
PAYNESVILLE    MOSUNNY   67  31  25 NE16      29.96F
AITKIN         SUNNY     64  32  29 E9G17     30.02F
PINE RIVER     SUNNY     64  36  34 E15       30.04F
BRAINERD       SUNNY     64  29  26 SE13G20   30.02F
STAPLES        SUNNY     66  28  24 E9        29.98F
LONG PRAIRIE   FAIR      68  34  28 E16       29.98F
LITTLE FALLS   SUNNY     68  30  24 E12G18    29.99F
LITCHFIELD     PTSUNNY   72  30  21 E15       29.95F
BUFFALO        PTSUNNY   71  30  22 E10G21    29.97F
MAPLE LAKE     PTSUNNY   71  34  25 E10       29.97F
$$
MNZ037-044-045-052-053-182200-
   East Central Minnesota

CITY           SKY/WX    TMP DP  RH WIND       PRES   REMARKS
PRINCETON      PTSUNNY   72  30  21 E10G17    29.99F
MORA           SUNNY     66  32  28 E8G17     30.02F
CAMBRIDGE      MOSUNNY   72  46  40 E9G17     29.98F
RUSH CITY      MOSUNNY   71  32  23 SE9G20    30.01F
MOOSE LAKE     SUNNY     54  32  43 NE13      30.06F
HINCKLEY       FAIR      68  32  26 E9        30.02F
CLOQUET        SUNNY     46  28  49 E16G23    30.11F
MCGREGOR       SUNNY     59  34  38 E12G18    30.06F
$$
MNZ071>073-080-081-089-090-097-098-182200-
   Southwest Minnesota

CITY           SKY/WX    TMP DP  RH WIND       PRES   REMARKS
MONTEVIDEO     CLOUDY    73  30  20 SE16      29.90F
GRANITE FALLS  CLOUDY    73  33  22 E10       29.91F
CANBY          CLOUDY    73  35  24 SE16      29.88F
MARSHALL       CLOUDY    70  41  35 S21G30    29.89F
REDWOOD FALLS  CLOUDY    73  39  29 S22       29.89F
OLIVIA         CLOUDY    70  32  24 E13G18    29.91F
PIPESTONE      DRIZZLE   61  55  82 S10       29.90F
WINDOM         CLOUDY    64  48  55 SE15      29.92F
WORTHINGTON    CLOUDY    57  52  82 S8        29.92F
JACKSON        RAIN      57  54  88 E7        29.92F
TRACY          CLOUDY    66  51  57 S13G21    29.91F
SLAYTON        CLOUDY    62  52  70 SE16      29.92F
$$
MNZ065>067-074>077-082>085-091>093-182200-
   South Central Minnesota

CITY           SKY/WX    TMP DP  RH WIND       PRES   REMARKS
MANKATO        CLOUDY    72  39  30 N6        29.92F
NEW ULM        CLOUDY    70  37  30 S8        29.91F
ST JAMES       CLOUDY    70  36  28 S7        29.92F
FAIRMONT       CLOUDY    59  46  63 S3        29.90F
GLENCOE        CLOUDY    72  37  27 NE14      29.93F
FARIBAULT      CLOUDY    73  39  29 E13       29.93F
OWATONNA       CLOUDY    73  37  27 E14G21    29.93F
ALBERT LEA     CLOUDY    73  43  33 SE10G23   29.89F
$$
MNZ078>079-086>088-094>096-182200-
   Southeast Minnesota

CITY           SKY/WX    TMP DP  RH WIND       PRES   REMARKS
ROCHESTER      CLOUDY    71  42  35 E16G22    29.96F
RED WING       MOSUNNY   75  32  20 SE10      29.95F
STANTON        PTSUNNY   75  35  23 E14       29.93F
DODGE CENTER   PTSUNNY   73  39  29 E16G23    29.94F
WINONA         MOSUNNY   73  37  27 SE16G22   29.97F
AUSTIN         PTSUNNY   73  45  35 E18       29.91F
PRESTON        PTSUNNY   73  39  30 E16G22    29.96F
$$
ABBREVIATIONS USED IN REMARKS
   TC - TEMPERATURES IN CELSIUS
  WCI - WIND CHILL INDEX
   HX - HEAT INDEX
  VSB - VISIBILITY
$$


USA.gov is the U.S. government's official web portal to all federal, state and local government web resources and services.